This is the latest recevied weather packets stored in our database for station/object IR4UCA. If no packets are shown the sender has not sent any weather packets the latest 10 day(s).
| Time | Temp. | Humidity | Pressure | Rain* | Wind** | Luminosity | Snow |
|---|---|---|---|---|---|---|---|
| 1777378183 | 24.44° C | 50% | 1014.1 hPa | 0 mm | - | - | - |
| 1777377585 | 23.89° C | 51% | 1014.2 hPa | 0 mm | - | - | - |
| 1777376983 | 23.89° C | 50% | 1014.4 hPa | 0 mm | - | - | - |
| 1777375785 | 23.89° C | 51% | 1014.5 hPa | 0 mm | - | - | - |
| 1777375184 | 23.33° C | 52% | 1014.6 hPa | 0 mm | - | - | - |
| 1777374584 | 23.33° C | 52% | 1014.6 hPa | 0 mm | - | - | - |
| 1777373985 | 23.33° C | 50% | 1014.9 hPa | 0 mm | - | - | - |
| 1777373389 | 23.33° C | 51% | 1014.9 hPa | 0 mm | - | - | - |
| 1777372786 | 23.33° C | 51% | 1015 hPa | 0 mm | - | - | - |
| 1777372185 | 23.33° C | 52% | 1015.2 hPa | 0 mm | - | - | - |
| 1777371586 | 22.78° C | 51% | 1015.2 hPa | 0 mm | - | - | - |
| 1777370984 | 22.78° C | 51% | 1015.3 hPa | 0 mm | - | - | - |
| 1777370385 | 22.78° C | 51% | 1015.3 hPa | 0 mm | - | - | - |
| 1777369786 | 22.78° C | 56% | 1015.3 hPa | 0 mm | - | - | - |
| 1777369186 | 22.22° C | 55% | 1015.2 hPa | 0 mm | - | - | - |
| 1777368585 | 22.22° C | 53% | 1015.2 hPa | 0 mm | - | - | - |
| 1777367384 | 21.67° C | 53% | 1015.3 hPa | 0 mm | - | - | - |
| 1777366784 | 21.67° C | 53% | 1015.4 hPa | 0 mm | - | - | - |
| 1777365587 | 21.11° C | 51% | 1015.4 hPa | 0 mm | - | - | - |
| 1777364985 | 20° C | 53% | 1015.5 hPa | 0 mm | - | - | - |
| 1777364386 | 19.44° C | 52% | 1015.4 hPa | 0 mm | - | - | - |
| 1777363784 | 18.89° C | 53% | 1015.4 hPa | 0 mm | - | - | - |
| 1777363186 | 18.33° C | 54% | 1015.3 hPa | 0 mm | - | - | - |
| 1777362586 | 17.78° C | 56% | 1015.3 hPa | 0 mm | - | - | - |
| 1777362017 | 17.78° C | 56% | 1015.2 hPa | 0 mm | - | - | - |
* Rain latest hour (hover to see other rain measurements)
** Current wind speed in m/s (hover to see current wind gust speed)